Simultaneous Nadir Overpasses (SNOs) Predictions

Prediction of SNOs between METOP-C and LANDSAT-8 Satellite Orbit:

Table of predicted SNOs for the next 14.0 days since TLE Epoch: 6/8/2024
Index Date (METOP-C) Time (METOP-C) Lat,Lon (METOP-C) SZA (METOP-C ) Date (LANDSAT-8) Time (LANDSAT-8) Lat,Lon (LANDSAT-8) SZA (LANDSAT-8 ) Distance(km) Time Diff (sec)
1 06/08/2024 12:02:02 81.09, 38.76 60.31 06/08/2024 12:02:27 81.08, 38.71 60.31 0.94 25
2 06/08/2024 12:52:41 -81.11,-153.30 119.62 06/08/2024 12:51:53 -81.10,-153.34 119.65 0.99 48
3 06/11/2024 07:36:25 81.09, 105.21 60.09 06/11/2024 07:36:41 81.10, 105.34 60.11 2.25 16
4 06/11/2024 08:27:04 -81.11, -86.79 119.83 06/11/2024 08:26:07 -81.12, -86.70 119.84 1.52 57
5 06/14/2024 03:10:47 81.09, 171.53 59.91 06/14/2024 03:10:54 81.09, 171.64 59.92 1.93 7
6 06/14/2024 04:01:26 -81.11, -20.40 120.01 06/14/2024 04:00:20 -81.11, -20.37 120.03 0.60 66
7 06/16/2024 21:54:30 -81.07, 70.23 120.27 06/16/2024 21:55:41 -81.08, 70.36 120.22 2.39 71
8 06/16/2024 22:45:08 81.10,-121.52 59.86 06/16/2024 22:45:06 81.10,-121.63 59.84 1.90 2
9 06/16/2024 23:34:46 -81.15, 70.26 117.07 06/16/2024 23:33:39 -81.81, 67.72 117.18 84.66 67
10 06/19/2024 17:28:52 -81.08, 136.73 120.32 06/19/2024 17:29:53 -81.08, 136.79 120.28 1.02 61



Historial Predications of SNOs between METOP-C and LANDSAT-8
